Location: Bay Harbour
(38.2612°N, 75.2555°W)
Time: 23:36:45
(UTC+00:00)

Cosmos 44 Rocket - Pass Details

Date: 29 October 2020
Orbit: 642 x 748 km, 65.1° (Epoch: 03 December)

Event Time Altitude Azimuth Distance (km) Brightness Sun altitude
Rises 23:05:22 0° 197° (SSW) 2,959 6.9 -12.5°
Reaches altitude 10° 23:07:40 10° 193° (SSW) 2,064 6.0 -13.0°
Maximum altitude 23:12:14 54° 116° (ESE) 813 3.3 -13.9°
Enters shadow 23:16:15 14° 42° (NE) 1,869 5.1 -14.6°
